Dewpoint
43 39 38 28 21 23 18 19 18 35 37 43 46 41 40 44 44 38 62 64 66 68 69 68 69 69 68 69 69 70 70 71 71 71 71 71 71 71 71 71 70 70 68 67 67 68 68 69 69
41 38 30 27 21 20 23 23 26 37 40 45 45 46 48 50 58 60 60 66 68 69 69 67 69 69 69 68 69 70 70 71 71 71 71 71 71 70 70 70 70 69 68 66 66 66 67 68 68
36 32 27 24 21 18 21 22 30 42 45 45 45 50 52 55 59 60 65 68 69 69 69 69 69 69 69 69 69 68 69 70 71 71 71 71 71 71 70 70 70 69 68 67 65 65 66 66 66
33 27 26 22 21 21 21 21 38 42 44 47 47 48 57 62 62 64 67 67 68 69 69 69 69 69 69 68 68 68 68 68 69 70 70 70 70 70 69 69 69 69 69 68 66 65 64 64 65
27 26 23 22 22 22 22 24 42 41 43 45 46 51 55 60 64 65 66 67 68 69 69 68 69 69 69 68 68 68 68 68 68 68 69 69 69 69 69 69 69 69 69 69 69 68 66 64 63
24 25 22 21 22 24 25 27 34 40 44 47 49 54 58 62 63 65 66 68 68 69 69 68 69 70 69 68 67 67 68 68 69 69 69 69 69 69 68 68 68 68 68 68 68 69 69 68 67
23 22 21 21 23 23 25 27 38 39 42 47 49 53 60 61 63 64 66 68 68 68 69 70 70 69 69 68 68 68 68 68 68 67 67 68 67 67 67 67 68 67 66 66 66 66 67 68 68
24 21 19 21 22 22 25 24 39 41 45 50 56 53 57 61 62 63 64 65 65 66 67 67 68 69 68 68 67 67 67 67 65 64 64 64 64 63 63 64 64 63 62 62 62 61 61 64 64
23 19 20 22 24 25 25 22 27 47 48 59 61 60 61 61 60 60 61 62 62 64 65 65 66 67 66 65 64 64 64 63 63 62 62 62 62 60 59 58 57 57 58 57 57 57 57 57 59
23 24 22 22 25 25 25 24 23 39 48 58 59 61 60 58 55 56 57 59 61 64 64 65 66 66 64 63 62 61 60 60 61 60 60 60 58 56 54 52 52 52 52 52 52 53 52 52 54
29 26 28 29 28 29 24 25 24 31 36 51 58 59 57 56 55 59 60 61 61 62 62 63 63 63 62 60 58 57 57 57 57 57 57 54 52 52 51 50 49 49 49 48 47 46 47 47 49
29 29 30 29 29 29 28 25 25 23 41 52 60 59 57 56 58 59 59 60 60 60 60 60 60 59 58 57 56 55 54 53 53 54 53 52 51 51 51 48 49 49 50 48 47 46 47 47 47
30 30 30 30 29 29 30 28 32 53 61 61 60 59 58 59 59 60 60 61 60 58 58 58 58 56 55 53 53 53 53 52 52 50 50 50 50 50 49 49 47 47 47 47 46 45 45 44 44
31 31 30 28 26 28 28 45 40 56 59 57 57 57 58 58 59 59 59 58 57 56 55 54 54 53 51 51 50 50 49 49 50 48 48 48 48 48 47 47 46 46 46 44 44 43 42 43 42
32 27 27 26 25 27 29 44 52 56 57 56 56 56 57 58 59 58 57 56 55 52 52 51 51 51 49 47 47 47 45 43 43 44 47 46 45 45 43 42 41 44 43 41 41 41 40 38 38
27 27 24 24 23 26 27 39 53 56 56 55 55 56 57 58 58 56 55 54 52 52 51 49 47 44 45 46 45 44 44 43 43 43 44 45 45 45 43 42 42 44 42 41 40 40 39 38 37
28 22 22 23 27 25 34 47 51 55 55 54 55 55 55 56 56 54 52 49 47 47 48 44 43 42 44 46 45 44 43 41 42 42 43 45 45 45 43 42 43 42 41 41 41 40 41 39 38
26 25 23 22 25 38 46 48 50 53 54 54 54 55 55 54 54 54 52 49 49 48 46 43 41 44 45 44 44 44 41 41 41 41 43 43 44 45 43 43 44 42 41 41 42 41 41 40 40
30 29 24 24 28 42 46 47 48 50 53 53 54 54 53 52 51 50 49 48 46 44 43 42 42 42 40 40 41 43 39 40 41 42 45 45 44 45 44 43 43 42 42 43 43 42 41 39 41
30 28 24 24 36 41 44 44 46 48 49 51 52 52 50 50 48 47 46 46 45 43 42 42 42 42 41 40 42 43 41 41 42 45 46 46 45 44 43 43 43 43 42 43 43 43 40 40 41
28 26 24 23 34 39 39 38 43 46 48 49 50 49 49 47 46 45 44 44 43 43 43 42 43 43 41 43 44 43 43 42 42 44 44 43 43 44 43 43 43 42 41 40 41 41 41 38 38
24 26 24 23 23 21 29 21 38 44 45 45 48 47 46 45 45 43 42 42 42 41 41 41 42 42 43 43 43 42 40 41 44 44 43 40 39 40 40 39 38 37 37 36 38 39 39 38 36
26 25 23 23 23 24 27 22 34 42 43 43 44 45 44 45 43 42 42 42 41 41 40 43 43 43 43 43 43 42 43 44 43 41 38 36 33 31 30 30 30 30 29 29 31 30 31 29 33
26 25 28 28 25 20 26 26 29 39 42 43 42 42 43 43 43 43 44 42 41 40 42 43 42 42 43 44 45 46 45 42 37 34 33 31 28 26 25 24 27 28 26 24 23 23 26 30 30
27 28 23 22 21 18 33 31 28 39 41 39 39 40 42 43 42 43 44 42 41 41 43 43 41 41 45 45 43 41 39 36 32 29 27 25 23 22 22 23 26 26 25 22 23 23 24 29 27
28 27 24 21 24 26 32 30 32 42 40 38 40 40 41 41 42 42 43 44 41 41 43 42 42 43 42 41 38 34 31 28 25 25 23 23 22 21 23 24 25 25 22 22 24 24 27 26 25
29 29 31 30 31 29 29 34 36 42 40 40 39 39 40 40 41 41 41 42 41 40 43 43 42 40 38 34 30 28 26 24 23 24 23 22 21 17 22 20 20 23 24 24 25 24 25 25 25
30 33 30 31 26 25 27 32 30 39 39 39 38 38 39 40 40 40 40 41 41 42 43 41 39 35 32 29 27 25 24 23 23 23 21 22 22 21 19 19 20 21 21 23 24 22 22 22 21
33 33 32 32 30 25 23 24 35 36 40 40 39 39 39 39 39 39 39 39 40 40 39 36 33 30 28 26 25 24 24 22 21 20 21 22 22 19 18 18 19 20 20 18 23 21 20 20 20
35 33 33 27 27 30 28 28 33 35 41 41 40 38 39 39 39 38 38 38 38 37 33 32 29 26 25 24 23 24 23 21 19 19 21 23 19 18 17 18 19 20 19 17 21 19 20 20 19
Wind_Speed
3 2 3 2 2 2 2 1 1 2 5 2 9 5 4 2 1 2 2 3 18 21 18 17 17 17 16 17 16 15 17 17 18 17 16 14 14 13 13 12 11 11 11 11 10 9 9 8 8
1 2 2 2 3 6 2 3 1 2 3 10 8 4 4 3 3 7 9 7 19 20 17 17 17 17 15 17 17 16 15 15 16 17 17 16 14 12 12 11 11 10 10 10 9 8 8 8 7
3 2 1 3 3 4 2 1 2 3 4 4 5 4 3 5 4 3 6 13 17 15 15 15 16 17 15 16 17 16 16 15 14 14 14 14 14 11 10 10 11 11 11 10 10 9 8 7 7
1 2 4 6 6 2 4 4 5 7 4 5 5 7 7 12 5 7 12 14 16 14 14 16 17 19 17 17 17 17 15 14 14 12 12 11 10 9 9 9 9 9 8 8 8 9 8 7 7
4 3 6 5 3 2 4 5 7 6 4 4 4 5 5 8 10 14 16 16 16 16 16 17 18 19 20 20 19 18 17 13 13 11 9 9 9 7 8 7 7 8 8 9 8 8 7 6 5
3 2 6 11 5 4 4 3 3 2 3 5 5 6 4 4 8 13 15 15 14 14 11 12 15 14 17 20 21 21 17 15 12 11 10 10 10 9 7 7 6 6 7 7 7 7 7 7 6
4 4 4 2 5 7 4 1 3 5 3 4 5 5 4 8 10 13 15 16 15 15 13 12 11 13 13 13 15 18 20 17 16 15 15 15 17 16 15 15 14 15 15 15 14 11 8 6 6
4 4 3 2 3 6 7 3 3 2 5 4 3 4 6 10 14 16 17 18 17 16 14 12 10 12 12 11 15 16 21 23 22 22 22 19 19 19 20 17 17 16 16 16 15 14 14 10 11
2 3 3 2 2 3 7 4 1 2 7 7 6 3 16 22 19 19 16 17 16 15 13 13 13 13 12 13 13 16 18 20 20 20 20 16 14 14 14 16 18 20 19 19 18 18 17 15 13
4 3 2 1 2 2 3 3 3 3 4 6 15 17 21 22 18 19 11 12 14 13 13 14 14 13 14 13 13 13 14 14 14 15 16 15 14 15 15 16 19 22 20 19 18 18 16 16 13
1 3 1 1 3 4 2 2 2 4 4 4 15 21 20 20 18 18 18 17 17 13 12 14 15 14 14 15 11 10 12 11 13 14 15 17 16 14 15 12 14 15 18 14 16 16 14 14 12
1 2 2 5 1 5 4 3 2 3 8 4 26 24 22 19 15 18 16 20 16 13 12 13 14 15 15 12 9 10 11 12 15 15 16 14 14 15 14 13 13 14 15 16 16 14 14 13 12
1 2 5 7 10 7 4 3 5 13 12 21 25 23 22 20 18 15 9 14 15 14 11 12 14 15 12 13 13 13 15 14 10 10 14 17 16 15 13 14 13 16 15 14 15 13 13 15 15
3 6 10 3 7 3 4 8 3 11 13 19 22 23 22 22 20 14 11 13 13 12 13 13 15 16 17 14 17 16 12 14 14 14 17 19 17 15 14 13 14 15 14 15 14 15 15 15 15
2 5 2 4 9 5 6 10 10 8 16 18 18 21 21 18 15 13 15 15 17 18 13 17 15 14 17 15 15 15 14 17 18 18 20 20 17 16 14 15 17 15 15 15 15 17 16 17 17
2 3 3 6 14 2 6 4 10 8 16 17 16 18 17 16 16 17 15 14 11 17 14 18 17 16 17 16 15 17 17 17 17 17 17 17 16 15 15 15 15 13 14 16 16 17 16 18 18
7 5 4 4 13 2 8 4 7 8 15 16 15 16 17 17 15 15 15 14 18 15 14 20 16 18 19 17 15 17 16 16 15 14 15 16 16 15 15 16 15 16 16 16 16 15 16 18 20
2 2 1 3 6 16 17 8 5 7 13 17 17 17 19 19 15 13 14 13 14 10 12 17 17 17 16 15 13 13 14 14 14 14 14 14 13 13 13 13 13 13 14 15 15 15 15 15 18
3 1 0 2 2 8 9 7 5 7 11 12 11 15 17 16 16 13 14 14 11 8 10 13 18 13 11 8 9 10 13 12 13 13 14 13 12 12 12 12 13 13 14 14 14 13 13 13 16
2 3 3 1 6 6 5 8 4 6 4 3 11 14 13 16 16 12 13 9 10 12 9 10 12 8 6 7 6 6 9 11 11 11 14 14 14 13 13 12 12 13 12 14 14 14 12 11 14
4 5 4 2 6 7 10 3 1 3 6 6 7 8 9 14 15 11 13 15 15 13 11 10 9 8 9 11 11 10 10 6 7 10 11 14 15 15 15 15 14 14 13 14 14 14 14 13 12
2 8 4 4 5 3 6 2 3 5 6 6 8 8 10 9 6 7 9 9 14 14 12 12 10 11 9 7 8 9 9 9 6 9 10 12 15 16 15 15 15 14 13 14 13 12 12 13 13
2 4 3 2 3 3 4 4 3 7 10 11 12 12 11 11 10 9 6 9 10 13 14 11 13 13 11 11 11 12 13 11 8 8 10 11 13 16 17 16 15 14 12 12 13 13 13 11 11
6 5 6 4 2 3 0 3 4 10 15 16 15 15 15 12 9 4 4 10 10 12 12 11 15 13 12 13 12 14 13 10 9 9 9 9 11 13 16 15 13 12 12 13 13 13 12 12 11
3 4 1 2 2 3 2 3 5 8 10 21 23 19 14 10 8 5 5 8 9 11 11 12 14 14 12 13 13 12 12 13 12 9 9 10 10 10 13 12 11 10 12 13 12 11 10 11 12
9 6 5 3 3 2 2 5 2 3 9 16 17 15 11 9 6 5 5 6 9 10 11 12 14 15 12 13 13 12 11 10 11 10 9 9 7 8 9 9 9 10 12 11 10 9 8 10 11
5 5 2 7 2 1 1 3 4 5 10 15 18 16 15 11 8 6 5 7 10 13 14 15 14 14 12 13 12 12 11 11 10 10 9 8 7 7 8 9 9 10 10 10 9 8 9 10 11
4 9 4 1 3 3 1 5 7 12 18 17 19 20 16 13 12 10 9 10 10 10 12 15 15 14 13 12 11 11 10 10 10 9 9 7 7 7 8 9 9 9 9 10 8 9 9 12 11
4 3 6 5 2 3 2 4 6 17 24 28 25 22 22 19 14 11 10 10 13 14 13 13 14 14 12 11 10 10 9 9 9 8 6 6 6 7 8 8 8 8 9 11 9 11 10 13 13
1 3 5 5 4 1 1 7 2 7 15 21 23 23 20 18 16 13 12 12 13 14 13 17 13 13 11 11 10 10 9 8 7 7 5 5 6 7 7 7 8 9 10 11 9 12 11 12 14
Wind_Direction
358 46 126 95 179 63 62 48 336 156 158 120 124 132 88 91 11 343 32 63 131 129 138 138 125 124 122 115 109 100 98 97 98 92 91 84 83 86 81 81 80 80 78 76 77 83 86 86 83
5 128 74 87 67 118 84 301 270 103 97 126 111 100 75 75 73 110 134 127 135 132 137 135 128 120 116 112 106 100 95 92 92 97 98 98 97 94 92 82 74 67 66 68 75 80 86 84 80
141 58 67 78 58 72 76 327 146 122 146 144 116 62 69 15 49 89 94 125 122 126 128 122 111 104 101 97 98 98 99 94 86 86 90 92 91 80 69 67 66 57 57 53 53 58 62 67 65
96 76 75 65 75 2 294 322 168 149 110 70 107 87 81 30 11 71 107 111 107 107 107 108 107 106 99 97 93 88 83 89 88 84 86 90 95 102 97 78 67 68 64 66 60 55 50 49 48
39 54 59 84 26 270 289 315 169 155 117 112 106 116 68 41 78 101 114 113 113 114 124 128 124 123 121 116 110 104 101 96 101 102 100 97 91 76 72 60 61 53 50 40 37 36 45 51 50
64 64 78 81 45 328 291 320 171 109 108 108 106 102 75 55 88 100 107 105 113 117 122 125 123 116 122 127 125 122 114 107 97 88 78 73 65 59 51 52 46 52 60 66 58 42 25 15 22
85 71 94 95 22 52 14 7 129 198 163 86 102 86 108 84 98 107 102 92 81 66 55 61 97 104 101 103 114 118 111 95 83 74 61 55 58 55 53 47 48 49 42 36 34 38 51 43 19
83 87 108 82 62 52 8 54 118 104 110 110 10 134 160 140 132 117 103 96 88 81 72 59 62 77 78 81 68 77 89 91 82 71 63 51 49 45 42 42 47 53 49 41 35 27 19 29 42
122 72 99 75 57 336 337 55 48 49 105 71 19 68 126 141 134 107 98 105 102 94 94 89 86 81 79 64 45 61 60 76 83 82 81 74 66 54 46 38 42 43 38 37 33 25 17 12 24
58 98 150 244 304 311 320 345 86 156 139 92 79 102 123 132 132 113 105 77 46 72 67 84 75 77 67 55 44 54 59 56 69 79 84 80 72 58 59 41 39 42 40 34 32 25 17 12 8
59 123 153 262 283 320 270 157 2 150 199 156 150 137 136 129 119 91 69 48 35 39 59 62 81 78 71 68 44 49 43 52 52 59 81 81 74 65 53 40 38 38 36 31 33 28 23 18 12
261 116 161 290 293 319 288 134 101 37 338 251 133 134 129 126 107 98 99 95 75 41 60 60 69 72 80 90 78 75 74 67 60 42 57 64 70 57 55 50 38 40 35 28 27 27 17 14 13
67 323 283 301 304 274 315 319 78 28 61 104 118 115 118 105 89 80 86 86 88 93 70 61 74 74 77 81 72 60 64 59 61 61 61 68 69 63 55 46 40 41 35 32 28 23 19 18 11
306 287 295 303 337 41 114 48 90 46 85 92 100 102 108 107 117 110 85 90 94 92 88 83 73 78 80 73 81 80 76 81 74 64 57 58 58 58 55 46 41 40 33 31 27 19 18 14 6
313 316 360 24 3 55 152 41 37 87 89 93 96 106 109 110 104 105 118 128 129 113 95 94 92 91 95 92 91 87 85 78 68 61 55 56 55 58 58 51 43 37 32 29 27 21 19 12 6
50 51 111 24 8 34 189 78 17 120 110 104 107 110 108 100 109 101 99 94 95 101 116 111 114 111 100 90 79 77 71 72 68 64 63 61 60 57 56 51 43 35 35 30 27 21 15 11 5
27 112 38 50 16 338 38 113 17 106 126 120 120 121 113 97 85 96 104 110 106 117 130 113 114 104 96 91 82 77 74 73 70 69 65 60 57 54 56 49 38 33 32 29 22 22 19 12 359
105 94 16 15 10 63 78 96 61 85 133 135 140 134 127 120 100 105 103 105 105 129 134 117 107 102 98 96 89 83 77 72 67 61 56 53 52 51 56 55 45 39 38 32 24 22 20 16 359
131 176 242 59 131 70 87 101 73 67 118 141 139 127 117 111 106 100 100 94 96 98 110 116 112 111 105 108 100 85 82 77 67 61 54 50 49 50 51 51 42 37 39 34 28 18 15 16 5
178 175 232 74 97 88 135 93 71 95 101 97 125 132 133 122 110 125 119 125 132 131 128 118 106 102 98 106 109 99 96 79 74 59 52 47 52 52 56 49 44 37 33 31 26 19 6 7 14
182 194 199 196 101 75 137 84 125 64 112 126 134 132 128 134 146 142 140 152 142 132 129 125 108 111 103 108 114 102 97 94 75 53 57 52 57 55 51 47 45 40 33 26 23 17 15 358 4
185 216 186 175 172 220 209 245 229 191 173 165 160 166 158 150 140 179 159 156 136 130 126 105 113 108 106 112 107 110 111 101 77 71 64 60 51 49 46 44 41 38 33 26 18 16 10 5 359
197 129 147 138 169 171 189 243 155 173 205 197 189 193 184 175 188 184 173 151 139 137 114 119 109 96 94 100 109 108 102 98 96 86 70 55 51 44 39 35 34 32 29 24 19 12 9 6 357
132 99 57 59 107 239 349 235 227 194 205 189 188 194 192 190 200 179 127 141 141 121 123 123 104 95 99 101 104 106 106 103 88 62 67 50 45 39 35 32 32 33 31 24 16 10 13 13 17
132 125 224 212 182 231 151 185 276 224 197 188 182 187 192 190 191 190 172 168 155 135 136 124 116 106 105 106 100 100 103 102 91 71 57 51 43 37 29 26 23 26 25 19 12 8 12 19 15
192 184 178 215 204 192 161 228 253 307 179 175 179 181 174 179 176 171 178 171 162 150 143 128 120 119 117 110 105 100 98 90 89 83 78 68 60 44 32 32 28 21 16 13 8 7 14 9 2
157 175 116 111 44 248 282 277 235 141 166 168 174 177 184 177 167 158 146 155 159 157 148 136 127 122 118 113 109 100 96 97 97 92 82 75 60 42 33 23 16 16 15 12 4 9 7 356 354
140 140 133 85 198 240 255 269 248 200 197 184 186 189 183 175 174 162 152 151 152 146 132 131 128 128 125 120 115 109 108 99 95 91 80 74 62 45 23 15 16 13 9 7 1 0 356 349 348
132 149 74 106 87 209 274 255 230 218 198 197 199 193 187 185 179 162 153 147 140 133 142 131 128 133 128 122 119 114 109 102 96 86 75 69 60 31 16 7 11 13 8 358 350 350 345 341 339
158 148 151 187 204 125 244 272 252 259 223 207 203 198 190 183 172 164 156 153 145 150 156 137 142 137 134 132 125 116 117 107 90 77 71 58 40 24 5 4 12 7 356 349 343 337 337 336 335